Flag for Slovenia Weather past 2 weeks in Celje, Slovenia

Now
66 °F

Mild.


Feels Like: 66 °F
Forecast: 57 / 71 °F
Wind: 1 mph from Northeast

Location: Celje

Current Time: Jul 28, 2015 at 5:31:23 PM

Latest Report: Jul 28, 2015 at 4:00 PM


Visibility: N/A

Pressure: 29.84 "Hg

Humidity: 82%

Dew point: 61 °F

Location of CeljeLocation

Historic Weather in Celje — Graph

°F

Celje temperature yesterday

Maximum temperature yesterday: 67 °F (at 6:00 PM)
Minimum temperature yesterday: 60 °F (at 2:00 AM)
Average temperature yesterday: 63 °F

Past Weeks' High & Low Weather Summary

 TemperatureHumidityPressure
High96 °F (Jul 17, 4:00 PM)98% (Jul 15, 6:00 AM)30.11 "Hg (Jul 15, 6:00 AM)
Low60 °F (Jul 26, 4:00 AM)35% (Jul 19, 6:00 PM)29.72 "Hg (Jul 25, 7:00 PM)
Average74 °F76%29.93 "Hg
* Reported Jul 13 4:00 PM — Jul 28 4:00 PM, Celje, Weather by CustomWeather, © 2015

Note: Actual official high and low records may vary slightly from our data, if they occured in-between our weather recording intervals... More about our weather records

Advertising

Celje weather history for previous 24 hours

 ConditionsComfort  
Time TempWeatherWind HumidityBarometerVisibility
4:00 PM
Tue, Jul 28
66 °FMild.1 mph82%29.84 "HgN/A
3:00 PM65 °FLow clouds.1 mph90%29.85 "Hg11 mi
2:00 PM63 °FLow clouds.No wind90%29.87 "Hg11 mi
1:00 PM63 °FMild.2 mph95%29.88 "HgN/A
12:00 PM63 °FMild.2 mph94%29.88 "HgN/A
11:00 AM65 °FMild.2 mph85%29.88 "HgN/A
10:00 AM64 °FMild.1 mph88%29.88 "HgN/A
8:00 AM62 °FMild.1 mph95%29.87 "HgN/A
7:00 AM62 °FLow clouds.No wind96%29.87 "Hg31 mi
6:00 AM62 °FOvercast.1 mph96%29.87 "Hg28 mi
5:00 AM62 °FOvercast.1 mph96%29.85 "Hg28 mi
4:00 AM62 °FCool.1 mph96%29.85 "HgN/A
3:00 AM63 °FMild.1 mph96%29.85 "HgN/A
2:00 AM63 °FMild.2 mph96%29.85 "HgN/A
1:00 AM63 °FMild.1 mph97%29.86 "HgN/A
12:00 AM63 °FMild.2 mph97%29.87 "HgN/A
10:00 PM
Mon, Jul 27
63 °FMild.1 mph97%29.85 "HgN/A
9:00 PM64 °FMild.1 mph96%29.84 "HgN/A
8:00 PM65 °FLow clouds.1 mph95%29.82 "Hg11 mi
7:00 PM66 °FMild.1 mph92%29.80 "HgN/A
6:00 PM67 °FMild.No wind86%29.79 "HgN/A
5:00 PM66 °FMild.1 mph87%29.79 "HgN/A
Weather by CustomWeather, © 2015

See weather overviewHow to use our weather pages